This is the latest recevied weather packets stored in our database for station/object DL0BB-10. If no packets are shown the sender has not sent any weather packets the latest 10 day(s).
| Time | Temp. | Humidity | Pressure | Rain* | Wind** | Luminosity | Snow |
|---|---|---|---|---|---|---|---|
| 1787493564 | 26.67° C | 36% | 1022.3 hPa | - | - | - | - |
| 1787492664 | 27.22° C | 36% | 1022.5 hPa | - | - | - | - |
| 1787491764 | 27.22° C | 34% | 1022.6 hPa | - | - | - | - |
| 1787490863 | 26.67° C | 36% | 1022.5 hPa | - | - | - | - |
| 1787489963 | 26.67° C | 36% | 1022.6 hPa | - | - | - | - |
| 1787489063 | 26.67° C | 35% | 1022.6 hPa | - | - | - | - |
| 1787488163 | 27.22° C | 34% | 1022.7 hPa | - | - | - | - |
| 1787487263 | 26.11° C | 36% | 1022.7 hPa | - | - | - | - |
| 1787486363 | 26.11° C | 36% | 1022.8 hPa | - | - | - | - |
| 1787485463 | 26.11° C | 35% | 1023 hPa | - | - | - | - |
| 1787484563 | 26.67° C | 33% | 1023.2 hPa | - | - | - | - |
| 1787483662 | 25.56° C | 35% | 1023.2 hPa | - | - | - | - |
| 1787482762 | 25.56° C | 35% | 1023.3 hPa | - | - | - | - |
| 1787481862 | 26.11° C | 34% | 1023.4 hPa | - | - | - | - |
| 1787480961 | 26.11° C | 33% | 1023.5 hPa | - | - | - | - |
| 1787480061 | 25.56° C | 35% | 1023.6 hPa | - | - | - | - |
| 1787479161 | 25.56° C | 35% | 1023.8 hPa | - | - | - | - |
| 1787478260 | 25.56° C | 34% | 1023.7 hPa | - | - | - | - |
| 1787477360 | 26.11° C | 33% | 1023.8 hPa | - | - | - | - |
| 1787476459 | 25° C | 35% | 1023.9 hPa | - | - | - | - |
| 1787475559 | 25° C | 35% | 1023.9 hPa | - | - | - | - |
| 1787474662 | 25.56° C | 34% | 1023.8 hPa | - | - | - | - |
| 1787473762 | 25.56° C | 33% | 1023.7 hPa | - | - | - | - |
| 1787472862 | 24.44° C | 35% | 1023.7 hPa | - | - | - | - |
| 1787471962 | 25° C | 34% | 1023.7 hPa | - | - | - | - |
* Rain since midnight (hover to see other rain measurements)
** Current wind speed in m/s (hover to see current wind gust speed)